| time (UTC) | temp F | wind direction | speed MPH | gust MPH | rain 1hr in | rain 24hr in | rain mn in | humidity % | barometer mb |
| 20260506062502 | 40 | 86 | 2.0 | 3.0 | 0.00 | 0.00 | 0.00 | 76 | 1009.8 |
| 20260506062003 | 40 | 83 | 2.0 | 3.0 | 0.00 | 0.00 | 0.00 | 76 | 1010.2 |
| 20260506061503 | 41 | 83 | 2.0 | 3.0 | 0.00 | 0.00 | 0.00 | 75 | 1010.2 |
| 20260506060502 | 40 | 79 | 3.0 | 3.0 | 0.00 | 0.00 | 0.00 | 75 | 1010.2 |
| 20260506051002 | 40 | 98 | 2.0 | 2.0 | 0.00 | 0.00 | 0.00 | 76 | 1011.2 |
| 20260506050503 | 40 | 79 | 0.0 | 2.0 | 0.00 | 0.00 | 0.00 | 76 | 1011.5 |
| 20260506044503 | 41 | 108 | 1.0 | 2.0 | 0.00 | 0.00 | 0.00 | 74 | 1011.1 |
| 20260506044004 | 41 | 100 | 2.0 | 3.0 | 0.00 | 0.00 | 0.00 | 74 | 1010.9 |
| 20260506043503 | 41 | 91 | 2.0 | 3.0 | 0.00 | 0.00 | 0.00 | 75 | 1010.8 |
| 20260506043002 | 41 | 109 | 2.0 | 3.0 | 0.00 | 0.00 | 0.00 | 74 | 1011.1 |
| 20260506042503 | 41 | 114 | 2.0 | 3.0 | 0.00 | 0.00 | 0.00 | 75 | 1010.9 |
| 20260506041504 | 40 | 110 | 2.0 | 2.0 | 0.00 | 0.00 | 0.00 | 75 | 1011.2 |
| 20260506041003 | 40 | 106 | 1.0 | 2.0 | 0.00 | 0.00 | 0.00 | 75 | 1011.0 |
| 20260506040503 | 40 | 116 | 2.0 | 2.0 | 0.00 | 0.00 | 0.00 | 76 | 1011.0 |
| 20260506040004 | 40 | 113 | 2.0 | 2.0 | 0.00 | 0.00 | 0.00 | 75 | 1011.1 |
| 20260506035003 | 40 | 127 | 2.0 | 2.0 | 0.00 | 0.00 | 0.00 | 76 | 1010.7 |
| 20260506034502 | 40 | 115 | 2.0 | 2.0 | 0.00 | 0.00 | 0.00 | 76 | 1011.1 |
| 20260506034002 | 40 | 119 | 1.0 | 2.0 | 0.00 | 0.00 | 0.00 | 77 | 1010.8 |
| 20260506033502 | 40 | 108 | 0.0 | 2.0 | 0.00 | 0.00 | 0.00 | 77 | 1010.5 |
| 20260506033005 | 40 | 105 | 1.0 | 2.0 | 0.00 | 0.00 | 0.00 | 77 | 1010.8 |
| 20260506032504 | 40 | 90 | 2.0 | 2.0 | 0.00 | 0.00 | 0.00 | 76 | 1011.2 |
| 20260506032002 | 40 | 97 | 2.0 | 2.0 | 0.00 | 0.00 | 0.00 | 77 | 1011.2 |
| 20260506031503 | 40 | 114 | 2.0 | 3.0 | 0.00 | 0.00 | 0.00 | 76 | 1010.8 |
| 20260506031004 | 40 | 108 | 2.0 | 3.0 | 0.00 | 0.00 | 0.00 | 76 | 1010.8 |
| 20260506030502 | 40 | 104 | 2.0 | 3.0 | 0.00 | 0.00 | 0.00 | 76 | 1011.2 |
| 20260506030003 | 41 | 106 | 2.0 | 3.0 | 0.00 | 0.00 | 0.00 | 76 | 1010.8 |
| 20260506025502 | 41 | 100 | 1.0 | 3.0 | 0.00 | 0.00 | 0.00 | 76 | 1011.2 |
| 20260506025003 | 41 | 106 | 1.0 | 3.0 | 0.00 | 0.00 | 0.00 | 76 | 1011.2 |
| 20260506024503 | 41 | 123 | 1.0 | 2.0 | 0.00 | 0.00 | 0.00 | 76 | 1011.2 |
| 20260506024003 | 41 | 92 | 2.0 | 2.0 | 0.00 | 0.00 | 0.00 | 76 | 1010.8 |
| 20260506023503 | 41 | 134 | 2.0 | 2.0 | 0.00 | 0.00 | 0.00 | 75 | 1011.2 |
| 20260506023003 | 41 | 111 | 1.0 | 2.0 | 0.00 | 0.00 | 0.00 | 74 | 1011.2 |
| 20260506022502 | 41 | 89 | 1.0 | 3.0 | 0.00 | 0.00 | 0.00 | 73 | 1011.2 |
| 20260506022002 | 41 | 79 | 2.0 | 3.0 | 0.00 | 0.00 | 0.00 | 73 | 1011.2 |
| 20260506021502 | 41 | 117 | 2.0 | 3.0 | 0.00 | 0.00 | 0.00 | 73 | 1011.2 |
| 20260506021003 | 41 | 128 | 2.0 | 3.0 | 0.00 | 0.00 | 0.00 | 73 | 1010.8 |
| 20260506020502 | 41 | 74 | 2.0 | 3.0 | 0.00 | 0.00 | 0.00 | 72 | 1011.2 |
| 20260506020002 | 41 | 101 | 2.0 | 2.0 | 0.00 | 0.00 | 0.00 | 72 | 1010.8 |
| 20260506015503 | 41 | 98 | 2.0 | 2.0 | 0.00 | 0.00 | 0.00 | 73 | 1011.2 |
| 20260506015003 | 41 | 89 | 2.0 | 2.0 | 0.00 | 0.00 | 0.00 | 72 | 1010.8 |
| 20260506013502 | 41 | 73 | 2.0 | 3.0 | 0.00 | 0.00 | 0.00 | 73 | 1010.8 |
| 20260506013003 | 41 | 81 | 0.0 | 3.0 | 0.00 | 0.00 | 0.00 | 72 | 1010.5 |
| 20260506012503 | 41 | 96 | 2.0 | 3.0 | 0.00 | 0.00 | 0.00 | 72 | 1010.8 |
| 20260506012003 | 41 | 98 | 2.0 | 3.0 | 0.00 | 0.00 | 0.00 | 73 | 1010.2 |
| 20260506011502 | 42 | 86 | 2.0 | 3.0 | 0.00 | 0.00 | 0.00 | 72 | 1010.2 |
| 20260506011002 | 42 | 53 | 2.0 | 3.0 | 0.00 | 0.00 | 0.00 | 72 | 1010.2 |
| 20260506010504 | 42 | 46 | 2.0 | 3.0 | 0.00 | 0.00 | 0.00 | 72 | 1010.5 |
| 20260506010003 | 42 | 51 | 2.0 | 3.0 | 0.00 | 0.00 | 0.00 | 72 | 1010.5 |
| 20260506005503 | 42 | 63 | 2.0 | 5.0 | 0.00 | 0.00 | 0.00 | 71 | 1010.2 |
| 20260506005003 | 42 | 35 | 1.0 | 5.0 | 0.00 | 0.00 | 0.00 | 71 | 1010.2 |
| 20260506004504 | 42 | 38 | 2.0 | 6.0 | 0.00 | 0.00 | 0.00 | 71 | 1010.2 |
| 20260506004003 | 42 | 32 | 2.0 | 6.0 | 0.00 | 0.00 | 0.00 | 71 | 1010.2 |
| 20260506003503 | 43 | 63 | 3.0 | 6.0 | 0.00 | 0.00 | 0.00 | 70 | 1010.2 |
| 20260506003003 | 43 | 63 | 2.0 | 6.0 | 0.00 | 0.00 | 0.00 | 70 | 1010.2 |
| 20260506002503 | 43 | 50 | 3.0 | 6.0 | 0.00 | 0.00 | 0.00 | 70 | 1009.8 |
| 20260506002003 | 43 | 45 | 3.0 | 6.0 | 0.00 | 0.00 | 0.00 | 70 | 1010.2 |
| 20260506001502 | 43 | 82 | 2.0 | 6.0 | 0.00 | 0.00 | 0.00 | 70 | 1010.2 |
| 20260506001004 | 43 | 75 | 2.0 | 6.0 | 0.00 | 0.00 | 0.00 | 69 | 1010.2 |
| 20260506000502 | 44 | 67 | 1.0 | 7.0 | 0.00 | 0.00 | 0.00 | 69 | 1010.2 |
| 20260506000003 | 44 | 80 | 1.0 | 7.0 | 0.00 | 0.00 | 0.00 | 69 | 1009.5 |
| 20260505235503 | 44 | 57 | 2.0 | 7.0 | 0.00 | 0.00 | 0.00 | 68 | 1009.8 |
| 20260505235003 | 44 | 74 | 2.0 | 9.0 | 0.00 | 0.00 | 0.00 | 68 | 1009.5 |
| 20260505234504 | 44 | 35 | 3.0 | 9.0 | 0.00 | 0.00 | 0.00 | 68 | 1009.8 |
| 20260505233503 | 45 | 333 | 3.0 | 8.0 | 0.00 | 0.00 | 0.00 | 68 | 1009.5 |
| 20260505233003 | 45 | 25 | 8.0 | 8.0 | 0.00 | 0.00 | 0.00 | 66 | 1009.5 |
| 20260505232503 | 45 | 13 | 1.0 | 6.0 | 0.00 | 0.00 | 0.00 | 65 | 1009.8 |
| 20260505232003 | 45 | 315 | 5.0 | 9.0 | 0.00 | 0.00 | 0.00 | 64 | 1010.2 |
| 20260505231503 | 45 | 32 | 0.0 | 9.0 | 0.00 | 0.00 | 0.00 | 65 | 1009.5 |
| 20260505231003 | 46 | 290 | 3.0 | 9.0 | 0.00 | 0.00 | 0.00 | 64 | 1009.1 |
| 20260505230503 | 46 | 64 | 0.0 | 6.0 | 0.00 | 0.00 | 0.00 | 65 | 1009.5 |
| 20260505230003 | 46 | 330 | 2.0 | 7.0 | 0.00 | 0.00 | 0.00 | 65 | 1009.1 |
| 20260505225002 | 46 | 318 | 2.0 | 8.0 | 0.00 | 0.00 | 0.00 | 65 | 1010.2 |
| 20260505224002 | 46 | 311 | 3.0 | 8.0 | 0.00 | 0.00 | 0.00 | 65 | 1009.5 |
| 20260505223503 | 46 | 332 | 3.0 | 8.0 | 0.00 | 0.00 | 0.00 | 65 | 1009.5 |
| 20260505223003 | 46 | 323 | 3.0 | 6.0 | 0.00 | 0.00 | 0.00 | 64 | 1009.8 |
| 20260505222503 | 46 | 352 | 2.0 | 6.0 | 0.00 | 0.00 | 0.00 | 64 | 1009.8 |
| 20260505221504 | 46 | 295 | 1.0 | 7.0 | 0.00 | 0.00 | 0.00 | 64 | 1009.8 |
| 20260505221004 | 47 | 308 | 3.0 | 7.0 | 0.00 | 0.00 | 0.00 | 64 | 1009.6 |
| 20260505220503 | 47 | 326 | 3.0 | 7.0 | 0.00 | 0.00 | 0.00 | 64 | 1009.5 |
| 20260505215503 | 47 | 298 | 2.0 | 7.0 | 0.00 | 0.00 | 0.00 | 64 | 1010.0 |
| 20260505214003 | 46 | 318 | 3.0 | 6.0 | 0.00 | 0.00 | 0.00 | 64 | 1009.4 |
| 20260505213502 | 47 | 286 | 3.0 | 8.0 | 0.00 | 0.00 | 0.00 | 64 | 1009.1 |
| 20260505213003 | 46 | 234 | 2.0 | 8.0 | 0.00 | 0.00 | 0.00 | 64 | 1009.1 |
| 20260505212503 | 46 | 309 | 2.0 | 8.0 | 0.00 | 0.00 | 0.00 | 64 | 1009.1 |
| 20260505212004 | 46 | 281 | 3.0 | 8.0 | 0.00 | 0.00 | 0.00 | 64 | 1009.1 |
| 20260505211504 | 46 | 326 | 2.0 | 8.0 | 0.00 | 0.00 | 0.00 | 64 | 1009.5 |
| 20260505211003 | 47 | 322 | 2.0 | 7.0 | 0.00 | 0.00 | 0.00 | 63 | 1009.1 |
| 20260505210503 | 46 | 6 | 2.0 | 7.0 | 0.00 | 0.00 | 0.00 | 65 | 1009.5 |
| 20260505210003 | 46 | 27 | 1.0 | 7.0 | 0.00 | 0.00 | 0.00 | 64 | 1009.1 |
| 20260505205503 | 46 | 253 | 1.0 | 7.0 | 0.00 | 0.00 | 0.00 | 65 | 1009.5 |
| 20260505205004 | 46 | 309 | 2.0 | 7.0 | 0.00 | 0.00 | 0.00 | 65 | 1009.5 |
| 20260505204503 | 46 | 7 | 2.0 | 9.0 | 0.00 | 0.00 | 0.00 | 66 | 1009.5 |
| 20260505204003 | 46 | 45 | 1.0 | 9.0 | 0.00 | 0.00 | 0.00 | 66 | 1009.5 |
| 20260505203503 | 46 | 329 | 3.0 | 9.0 | 0.00 | 0.00 | 0.00 | 65 | 1009.1 |
| 20260505203004 | 46 | 358 | 5.0 | 9.0 | 0.00 | 0.00 | 0.00 | 65 | 1009.5 |
| 20260505201003 | 45 | 305 | 5.0 | 7.0 | 0.00 | 0.00 | 0.00 | 66 | 1009.1 |
| 20260505195503 | 45 | 286 | 5.0 | 10.0 | 0.00 | 0.00 | 0.00 | 67 | 1009.1 |
| 20260505195003 | 45 | 321 | 6.0 | 10.0 | 0.00 | 0.00 | 0.00 | 67 | 1008.5 |
| 20260505194503 | 45 | 24 | 3.0 | 10.0 | 0.00 | 0.00 | 0.00 | 67 | 1008.5 |
| 20260505194003 | 45 | 326 | 3.0 | 9.0 | 0.00 | 0.00 | 0.00 | 67 | 1008.8 |
| 20260505193503 | 45 | 305 | 5.0 | 10.0 | 0.00 | 0.00 | 0.00 | 66 | 1008.5 |
| 20260505193003 | 46 | 294 | 3.0 | 12.0 | 0.00 | 0.00 | 0.00 | 66 | 1008.8 |
| 20260505192003 | 45 | 317 | 8.0 | 12.0 | 0.00 | 0.00 | 0.00 | 66 | 1008.5 |
| 20260505191003 | 46 | 310 | 7.0 | 10.0 | 0.00 | 0.00 | 0.00 | 67 | 1008.8 |
| 20260505190504 | 46 | 298 | 6.0 | 12.0 | 0.00 | 0.00 | 0.00 | 66 | 1008.5 |
| 20260505190005 | 46 | 300 | 3.0 | 12.0 | 0.00 | 0.00 | 0.00 | 66 | 1008.1 |
| 20260505185004 | 46 | 302 | 10.0 | 12.0 | 0.00 | 0.00 | 0.00 | 67 | 1008.5 |
| 20260505184503 | 46 | 25 | 3.0 | 12.0 | 0.00 | 0.00 | 0.00 | 67 | 1008.1 |
| 20260505184003 | 46 | 326 | 7.0 | 14.0 | 0.00 | 0.00 | 0.00 | 67 | 1008.5 |
| 20260505183004 | 45 | 309 | 2.0 | 14.0 | 0.00 | 0.00 | 0.00 | 67 | 1007.8 |
| 20260505182503 | 46 | 324 | 2.0 | 8.0 | 0.00 | 0.00 | 0.00 | 67 | 1008.5 |
| 20260505182004 | 46 | 309 | 7.0 | 8.0 | 0.00 | 0.00 | 0.00 | 67 | 1007.8 |
| 20260505181503 | 46 | 0 | 0.0 | 10.0 | 0.00 | 0.00 | 0.00 | 66 | 1007.8 |
| 20260505181003 | 46 | 333 | 7.0 | 10.0 | 0.00 | 0.00 | 0.00 | 65 | 1007.8 |
| 20260505180004 | 46 | 16 | 7.0 | 10.0 | 0.00 | 0.00 | 0.00 | 64 | 1007.5 |
| 20260505175003 | 46 | 328 | 1.0 | 10.0 | 0.00 | 0.00 | 0.00 | 65 | 1007.5 |
| 20260505174504 | 45 | 15 | 6.0 | 10.0 | 0.00 | 0.00 | 0.00 | 65 | 1007.5 |
| 20260505174003 | 45 | 330 | 2.0 | 10.0 | 0.00 | 0.00 | 0.00 | 65 | 1007.5 |
| 20260505173505 | 45 | 54 | 3.0 | 13.0 | 0.00 | 0.00 | 0.00 | 66 | 1007.5 |
| 20260505173003 | 45 | 11 | 3.0 | 13.0 | 0.00 | 0.00 | 0.00 | 66 | 1007.1 |
| 20260505172503 | 45 | 309 | 3.0 | 13.0 | 0.00 | 0.00 | 0.00 | 65 | 1006.8 |
| 20260505172003 | 45 | 0 | 2.0 | 12.0 | 0.00 | 0.00 | 0.00 | 67 | 1007.1 |
| 20260505171503 | 45 | 281 | 5.0 | 12.0 | 0.00 | 0.00 | 0.00 | 66 | 1007.5 |
| 20260505171003 | 45 | 358 | 7.0 | 12.0 | 0.00 | 0.00 | 0.00 | 66 | 1007.1 |
| 20260505170004 | 45 | 301 | 6.0 | 12.0 | 0.00 | 0.00 | 0.00 | 70 | 1007.4 |
| 20260505165503 | 44 | 294 | 9.0 | 12.0 | 0.00 | 0.00 | 0.00 | 71 | 1006.8 |
| 20260505165005 | 44 | 321 | 7.0 | 12.0 | 0.00 | 0.00 | 0.00 | 71 | 1007.0 |
| 20260505164503 | 44 | 284 | 6.0 | 15.0 | 0.00 | 0.00 | 0.00 | 71 | 1007.1 |
| 20260505164004 | 44 | 300 | 3.0 | 15.0 | 0.00 | 0.00 | 0.00 | 73 | 1007.1 |
| 20260505163503 | 44 | 312 | 4.0 | 15.0 | 0.00 | 0.00 | 0.00 | 73 | 1006.9 |
| 20260505163003 | 44 | 312 | 4.0 | 15.0 | 0.00 | 0.00 | 0.00 | 72 | 1006.9 |
| 20260505162503 | 44 | 347 | 3.0 | 12.0 | 0.00 | 0.00 | 0.00 | 72 | 1007.3 |
| 20260505162003 | 45 | 15 | 1.0 | 15.0 | 0.00 | 0.00 | 0.00 | 71 | 1007.3 |
| 20260505160503 | 45 | 292 | 6.0 | 17.0 | 0.00 | 0.00 | 0.00 | 66 | 1007.4 |
| 20260505153004 | 46 | 271 | 7.0 | 24.0 | 0.00 | 0.00 | 0.00 | 67 | 1006.4 |
| 20260505152504 | 46 | 287 | 8.0 | 24.0 | 0.00 | 0.00 | 0.00 | 67 | 1006.4 |
| 20260505151503 | 47 | 300 | 5.0 | 20.0 | 0.00 | 0.00 | 0.00 | 65 | 1006.1 |
| 20260505151003 | 47 | 341 | 9.0 | 20.0 | 0.00 | 0.00 | 0.00 | 65 | 1006.1 |
| 20260505150504 | 47 | 293 | 6.0 | 13.0 | 0.00 | 0.00 | 0.00 | 65 | 1005.4 |
| 20260505140504 | 45 | 294 | 2.0 | 14.0 | 0.00 | 0.00 | 0.00 | 76 | 1004.1 |
| 20260505125004 | 43 | 338 | 6.0 | 15.0 | 0.00 | 0.00 | 0.00 | 83 | 1003.4 |
| 20260505124503 | 43 | 317 | 7.0 | 15.0 | 0.00 | 0.00 | 0.00 | 84 | 1004.1 |
| 20260505124003 | 43 | 296 | 3.0 | 15.0 | 0.00 | 0.00 | 0.00 | 84 | 1003.7 |
| 20260505123503 | 43 | 304 | 7.0 | 14.0 | 0.00 | 0.00 | 0.00 | 85 | 1003.4 |
| 20260505123004 | 43 | 329 | 7.0 | 13.0 | 0.00 | 0.00 | 0.00 | 86 | 1003.4 |
| 20260505122504 | 43 | 305 | 8.0 | 13.0 | 0.00 | 0.00 | 0.00 | 86 | 1003.4 |
| 20260505122004 | 43 | 264 | 3.0 | 13.0 | 0.00 | 0.00 | 0.00 | 86 | 1003.0 |
| 20260505121504 | 44 | 298 | 6.0 | 12.0 | 0.00 | 0.00 | 0.00 | 86 | 1003.0 |
| 20260505120504 | 44 | 294 | 7.0 | 12.0 | 0.00 | 0.00 | 0.00 | 88 | 1002.7 |
| 20260505120006 | 44 | 341 | 7.0 | 12.0 | 0.00 | 0.00 | 0.00 | 88 | 1002.4 |
| 20260505115504 | 44 | 283 | 2.0 | 12.0 | 0.00 | 0.00 | 0.00 | 88 | 1002.4 |
| 20260505115004 | 44 | 314 | 2.0 | 13.0 | 0.00 | 0.00 | 0.00 | 88 | 1002.4 |
| 20260505114504 | 44 | 298 | 8.0 | 16.0 | 0.00 | 0.00 | 0.00 | 88 | 1001.7 |
| 20260505114005 | 44 | 309 | 5.0 | 20.0 | 0.00 | 0.00 | 0.00 | 88 | 1002.0 |
| 20260505113503 | 44 | 304 | 9.0 | 20.0 | 0.00 | 0.00 | 0.00 | 88 | 1002.4 |
| 20260505113004 | 45 | 298 | 13.0 | 20.0 | 0.00 | 0.00 | 0.00 | 87 | 1002.7 |
| 20260505112505 | 46 | 306 | 9.0 | 20.0 | 0.00 | 0.00 | 0.00 | 87 | 1002.2 |
| 20260505112003 | 47 | 301 | 4.0 | 17.0 | 0.00 | 0.00 | 0.00 | 88 | 1001.8 |
| 20260505111004 | 48 | 282 | 6.0 | 17.0 | 0.00 | 0.00 | 0.00 | 90 | 1001.8 |
| 20260505110504 | 49 | 279 | 6.0 | 17.0 | 0.00 | 0.00 | 0.00 | 89 | 1001.3 |
| 20260505102004 | 56 | 177 | 2.0 | 6.0 | 0.00 | 0.00 | 0.00 | 81 | 1000.0 |
| 20260505101504 | 56 | 195 | 2.0 | 6.0 | 0.00 | 0.00 | 0.00 | 81 | 999.7 |
| 20260505100004 | 57 | 193 | 3.0 | 8.0 | 0.00 | 0.00 | 0.00 | 80 | 999.7 |
| 20260505095005 | 57 | 179 | 3.0 | 9.0 | 0.00 | 0.00 | 0.00 | 80 | 999.7 |
| 20260505094003 | 57 | 190 | 1.0 | 10.0 | 0.00 | 0.00 | 0.00 | 80 | 999.7 |
| 20260505093004 | 57 | 199 | 3.0 | 10.0 | 0.00 | 0.00 | 0.00 | 80 | 999.7 |
| 20260505092004 | 57 | 184 | 7.0 | 8.0 | 0.00 | 0.00 | 0.00 | 80 | 999.7 |
| 20260505091503 | 57 | 226 | 1.0 | 3.0 | 0.00 | 0.00 | 0.00 | 80 | 999.3 |
| 20260505091005 | 57 | 183 | 2.0 | 8.0 | 0.00 | 0.00 | 0.00 | 80 | 999.7 |
| 20260505090504 | 57 | 183 | 2.0 | 8.0 | 0.00 | 0.00 | 0.00 | 80 | 999.7 |
| 20260505090003 | 57 | 214 | 2.0 | 8.0 | 0.00 | 0.00 | 0.00 | 79 | 999.3 |
| 20260505085503 | 57 | 199 | 5.0 | 7.0 | 0.00 | 0.00 | 0.00 | 80 | 999.7 |
| 20260505085005 | 57 | 175 | 2.0 | 7.0 | 0.00 | 0.00 | 0.00 | 79 | 999.7 |
| 20260505084505 | 57 | 167 | 0.0 | 7.0 | 0.00 | 0.00 | 0.00 | 79 | 999.7 |
| 20260505084004 | 57 | 199 | 7.0 | 7.0 | 0.00 | 0.00 | 0.00 | 79 | 999.7 |
| 20260505083504 | 57 | 301 | 1.0 | 5.0 | 0.00 | 0.00 | 0.00 | 78 | 999.7 |
| 20260505083004 | 57 | 155 | 1.0 | 3.0 | 0.00 | 0.00 | 0.00 | 77 | 999.7 |
| 20260505082503 | 58 | 175 | 1.0 | 6.0 | 0.00 | 0.00 | 0.00 | 76 | 999.7 |
| 20260505082004 | 58 | 205 | 0.0 | 6.0 | 0.00 | 0.00 | 0.00 | 75 | 1000.0 |
| 20260505081503 | 58 | 172 | 5.0 | 6.0 | 0.00 | 0.00 | 0.00 | 74 | 1000.0 |
| 20260505081003 | 58 | 195 | 2.0 | 9.0 | 0.00 | 0.00 | 0.00 | 74 | 1000.0 |
| 20260505080503 | 59 | 249 | 2.0 | 9.0 | 0.00 | 0.00 | 0.00 | 74 | 999.7 |
| 20260505080004 | 59 | 204 | 5.0 | 9.0 | 0.00 | 0.00 | 0.00 | 74 | 1000.3 |
| 20260505075005 | 59 | 217 | 0.0 | 7.0 | 0.00 | 0.00 | 0.00 | 75 | 1000.3 |
| 20260505074505 | 59 | 181 | 2.0 | 9.0 | 0.00 | 0.00 | 0.00 | 75 | 1000.3 |
| 20260505074003 | 59 | 266 | 2.0 | 9.0 | 0.00 | 0.00 | 0.00 | 74 | 1000.0 |
| 20260505073004 | 60 | 261 | 3.0 | 14.0 | 0.00 | 0.00 | 0.00 | 73 | 1000.0 |
| 20260505072503 | 60 | 235 | 2.0 | 14.0 | 0.00 | 0.00 | 0.00 | 74 | 1000.3 |
| 20260505072004 | 60 | 254 | 1.0 | 14.0 | 0.00 | 0.00 | 0.00 | 74 | 1000.0 |
| 20260505071503 | 60 | 215 | 8.0 | 14.0 | 0.00 | 0.00 | 0.00 | 74 | 1000.3 |
| 20260505071004 | 61 | 218 | 6.0 | 14.0 | 0.00 | 0.00 | 0.00 | 74 | 1000.3 |
| 20260505070502 | 61 | 226 | 5.0 | 14.0 | 0.00 | 0.00 | 0.00 | 73 | 1000.7 |
| 20260505070003 | 60 | 223 | 3.0 | 13.0 | 0.00 | 0.00 | 0.00 | 74 | 1000.7 |
| 20260505065503 | 60 | 231 | 2.0 | 13.0 | 0.00 | 0.00 | 0.00 | 74 | 1000.7 |